Погода в Иртышске

Хотите узнать прогноз погоды в Иртышске? Тогда Вам сюда: Погода в Иртышске

Поиск расширенной информации на нашем сайте:

Полезная информация:

Новости сайта



02.01.2020
Опубликован Долгосрочный прогноз погоды по городам России и ближнего зарубежья на январь 2020 года.
Карты: Прогноз на январь и февраль 2020 года, Сравнение прогнозируемой аномалии приземной температуры воздуха на январь 2020 года по разным моделям.




Погода в Иртышске - сегодня

Время (UTC), дата Ветер
(°,м/с) 
Видим.   Явления Облачность Т
(°С)
Тd
(°С)
f(%) Тe
(°С)
Pmin
(гПа)
dP
(гПа)
Po
(мм)
O2
(г/м3)
Тmin Tmax R s Состояние
почвы
12 22.10.21 190 (Ю) 10 км    10/10 600 м кучево-дожд. 
[Cb calv]
+5.4 -5.4 46 +3  1017.7  0.5  755  299           
15 22.10.21 220 (ЮЗ) н/о    10/10 600 м кучево-дожд. 
[Cb calv]
+4.8 -2.9 57 +2  1018.3  0.4  755  299    +5.4       
18 22.10.21 190 (Ю) 11{17}  н/о    10/10 600 м кучево-дожд. 
[Cb calv]
+3.6 -0.5 75 -1  1017.8  -0.5  755  300    +5.4  0.0     
21 22.10.21 220 (ЮЗ) 10{16}  н/о  слаб. ливневой дождь  10/10 600 м кучево-дожд. 
[Cb calv]
+4 +0.9 80 1017.6  -0.2  754  299           
00 23.10.21 190 (Ю) 6{15}  н/о  {ливн. осадки}  10/10 600 м кучево-дожд. 
[Cb calv]
+4.8 +0.7 75 +2  1016.5  -1.1  754  298           
03 23.10.21 170 (Ю) 10 км  в посл. час ливневой дождь  10/10 600 м кучево-дожд. 
[Cb calv]
+4.4 +3.4 93 +1  1015.6  -0.9  753  298           
06 23.10.21 210 (ЮЗ) 10 км  {ливн. осадки}  10/10 600 м кучево-дожд. 
[Cb calv]
+6.7 +3.6 81 +4  1014.6  -0.9  752  295  +3.6       
09 23.10.21 230 (ЮЗ) 10{17}  10 км    10/10 600 м кучево-дожд. 
[Cb calv]
+9 +2.3 63 +6  1013.9  -0.5  752  293           
12 23.10.21 230 (ЮЗ) 6{15}  10 км    10/10 600 м кучево-дожд. 
[Cb calv]
+9.2 +2.7 64 +7  1015.1  1.2  753  293           
15 23.10.21 210 (ЮЗ) н/о    10/10 600 м кучево-дожд. 
[Cb calv]
+10.6 +4.6 66 +10  1016.2  1.1  754  292    +10.7       
18 23.10.21 240 (ЮЗ) н/о    10/10 600 м кучево-дожд. 
[Cb calv]
+10 +4.6 69 +9  1016.6  0.4  754  292    +10.7       
21 23.10.21 230 (ЮЗ) н/о    10/10 600 м кучево-дожд. 
[Cb calv]
+10.3 +5.8 74 +9  1017.3  0.7  754  292           
00 24.10.21 240 (ЮЗ) н/о    8/8 600 м кучево-дожд. 
[Cb calv]
+9.8 +5.6 75 +8  1018.2  0.9  755  293           
03 24.10.21 210 (ЮЗ) 10 км    6/0 средняя, верхняя 
[Ac trans|Ci fib]
+9.6 +6.4 80 +8  1019.9  1.6  756  293           
06 24.10.21 240 (ЮЗ) 10 км    8/0 средняя, верхняя 
[Ac trans|Ci fib]
+12.7 +7.6 71 +12  1020.3  0.5  757  290  +9.5         
09 24.10.21 240 (ЮЗ) 10 км    6/4 600 м кучево-дожд., средняя 
[Cb calv|Ac trans]
+15.1 +3.8 47 +14  1020.1  -0.3  756  288           
12 24.10.21 260 (З) 10 км    8/3 600 м кучево-дожд., верхняя 
[Cb calv|Ci fib]
+13.1 +6.8 66 +12  1019.4  -0.6  756  290           
15 24.10.21 220 (ЮЗ) н/о    6/0 средняя, верхняя 
[Ac trans|Ci fib]
+9.2 +5.9 80 +9  1020.5  757  294    +15.3       
18 24.10.21 210 (ЮЗ) н/о    10/10 600 м кучево-дожд. 
[Cb calv]
+8 +3.6 74 +7  1019.9  -0.7  756  295    +15.3       
21 24.10.21 220 (ЮЗ) н/о    4/0 верхняя 
[Ci fib]
+6.2 +1.2 70 +4  1018.7  -1.2  755  297           
00 25.10.21 200 (Ю) н/о    4/0 верхняя 
[Ci fib]
+4.9 -2 61 +2  1017.3  -1.5  754  299           
03 25.10.21 230 (ЮЗ) 10 км    6/0 средняя, верхняя 
[Ac trans|Ci fib]
+5.1 -1.4 63 +3  1016.9  -0.3  754  298           
06 25.10.21 210 (ЮЗ) 10 км    4/0 средняя, верхняя 
[Ac trans|Ci fib]
+12.3 -1.4 39 +11  1016.6  754  291  +4.8         
09 25.10.21 230 (ЮЗ) 10 км    8/0 средняя, верхняя 
[Ac trans|Ci fib]
+13.1 -0.9 38 +12  1016.4  -0.2  754  290           
12 25.10.21 220 (ЮЗ) 10 км    3/0 средняя 
[Ac trans]
+10 +2.3 59 +10  1016.7  0.2  754  293           
Время (UTC), дата Ветер
(°,м/с) 
Видим.   Явления Облачность Т
(°С)
Тd
(°С)
f(%) Тe
(°С)
Pmin
(гПа)
dP
(гПа)
Po
(мм)
O2
(г/м3)
Тmin Tmax R s Состояние
почвы

Для получения пояснительной информации подведите курсор к названию столбца.

ПОГОДА в Иртышске - архив

Всё, что Вы хотите узнать о погоде в Иртышске - удобно и подробно!

Выберите нужную дату (начиная с 1 января 2019* года) и нажмите кнопку "Найти".
Будут отображены архивные сводки погоды по пункту Иртышск, начиная с указанной даты.


Отображать данные в формате CSV (для использования в таблицах Excel)


Внимание! Наш архив погоды предназначен исключительно для личного некоммерческого использования в познавательных целях. Если Вам необходимы официальные справки о состоянии погоды (для производственных, юридических, коммерческих и т.п. целей), обращайтесь в органы Росгидромета.

*Примечание: данная дата относится к архиву по метеостанциям СССР (Россия, СНГ, Балтия).
Архив по метеостанциям Зарубежной Европы и Азии (кроме Китая) хранится 10 дней, по другим регионам земного шара (Китай, Африка, Америка, Австралия, Океания) - 1 день.

Иртышск - район местоположения метеостанции


Название, широта, долгота, высота метеостанции:
Иртышск 53.3°ш. 75.4°д. 94 м над ур. моря [Казахстан]

Дополнительная информация

В oтличие oт бoльшинства пoгoдных сайтoв мы публикуем пoдрoбную метеoинфoрмацию в детальнoм прoфессиoнальнoм фoрмате.

Характеристики температуры и влажнoсти вoздуха измеряются на высoте 2 м в тени вдали oт зданий и деревьев.
Скoрoсть ветра измеряется на высoте 10 м (на урoвне рoста челoвека скoрoсть ветра ниже в 1.5-2 раза). Если метеoстанция нахoдится в гoрoде или в лесу, тo скoрoсть ветра занижена на 2-4 м/с пo сравнению с oткрытым местoм. Скoрoсть ветра над акватoриями крупных рек и oзёр, а также на вершинах хoлмoв на 2-5 м/с выше, чем в oбычных услoвиях.
Атмoсфернoе давление в разных тoчках местнoсти мoжет значительнo oтличаться oт давления на метеoстанции, в зависимoсти oт услoвий рельефа (при пoдъёме на 10 м давление пoнижается примернo на 1 мм рт.ст.).